CW9688 Weather Reports


time (UTC)temp
F
wind
direction
speed
knots
gust
knots
rain 1hr
in
rain 24hr
in
rain mn
in
humidity
%
barometer
mb
20260510172306 61 57 4.3 8.7 0.00 0.00 0.00 46 1019.3
20260510171303 61 253 2.6 7.0 0.00 0.00 0.00 46 1019.3
20260510170303 61 353 4.3 8.7 0.00 0.00 0.00 49 1019.3
20260510165803 60 16 3.5 7.0 0.00 0.00 0.00 48 1019.3
20260510165306 60 58 3.5 6.1 0.00 0.00 0.00 49 1019.3
20260510164304 58 57 4.3 7.0 0.00 0.00 0.00 54 1019.3
20260510162803 58 96 2.6 5.2 0.00 0.00 0.00 58 1019.3
20260510162306 57 60 2.6 7.0 0.00 0.00 0.00 58 1019.3
20260510155803 58 170 4.3 8.7 0.00 0.00 0.00 62 1018.8
20260510154804 56 124 2.6 6.1 0.00 0.00 0.00 65 1018.8
20260510154304 55 128 4.3 8.7 0.00 0.00 0.00 67 1018.8
20260510153303 56 158 4.3 7.8 0.00 0.00 0.00 67 1018.8
20260510152804 55 138 3.5 7.0 0.00 0.00 0.00 68 1018.8
20260510150803 54 149 4.3 7.8 0.00 0.00 0.00 71 1018.8
20260510150304 54 160 4.3 10.4 0.00 0.00 0.00 72 1018.8
20260510145804 54 111 5.2 7.0 0.00 0.00 0.00 72 1018.8
20260510145306 54 109 4.3 8.7 0.00 0.00 0.00 71 1018.8
20260510144804 53 118 2.6 6.1 0.00 0.00 0.00 73 1018.8
20260510144304 53 123 4.3 7.0 0.00 0.00 0.00 75 1018.8
20260510143805 52 116 5.2 10.4 0.00 0.00 0.00 76 1018.8
20260510143305 51 148 3.5 7.0 0.00 0.00 0.00 77 1018.8
20260510142804 51 240 3.5 5.2 0.00 0.00 0.00 77 1018.8
20260510142306 51 197 2.6 6.1 0.00 0.00 0.00 77 1018.8
20260510141804 51 165 2.6 6.1 0.00 0.00 0.00 78 1018.8
20260510141305 50 103 4.3 7.0 0.00 0.00 0.00 78 1018.8
20260510140805 50 166 3.5 6.1 0.00 0.00 0.00 79 1018.8
20260510140305 50 128 1.7 5.2 0.00 0.00 0.00 80 1018.8
20260510135306 49 139 3.5 7.0 0.00 0.00 0.00 81 1018.8
20260510134805 49 108 2.6 6.1 0.00 0.00 0.00 80 1018.8
20260510134305 49 132 4.3 7.0 0.00 0.00 0.00 81 1018.8
20260510133805 49 145 4.3 6.1 0.00 0.00 0.00 82 1018.8
20260510133304 48 111 1.7 5.2 0.00 0.00 0.00 84 1018.8
20260510132805 48 143 4.3 7.8 0.00 0.00 0.00 85 1018.8
20260510131305 48 141 2.6 5.2 0.00 0.00 0.00 85 1018.8
20260510125307 47 96 2.6 5.2 0.00 0.00 0.00 86 1018.8
20260510124304 47 57 1.7 2.6 0.00 0.00 0.00 86 1018.8
20260510123805 47 69 3.5 4.3 0.00 0.00 0.00 86 1018.8
20260510123305 47 54 1.7 4.3 0.00 0.00 0.00 86 1018.8
20260510121805 47 51 3.5 6.1 0.00 0.00 0.00 86 1018.8
20260510120305 47 60 3.5 5.2 0.00 0.00 0.00 85 1018.8
20260510115805 47 45 2.6 5.2 0.00 0.00 0.00 85 1018.8
20260510115306 47 63 4.3 6.1 0.00 0.00 0.00 85 1018.8
20260510113805 47 48 2.6 6.1 0.00 0.00 0.00 85 1018.8
20260510112805 47 66 4.3 8.7 0.00 0.00 0.00 85 1018.8
20260510112306 47 66 5.2 8.7 0.00 0.00 0.00 84 1018.8
20260510111805 47 56 4.3 8.7 0.00 0.00 0.00 84 1018.8
20260510110805 48 63 2.6 6.1 0.00 0.00 0.00 84 1018.8
20260510105306 48 54 4.3 7.0 0.00 0.00 0.00 81 1018.8
20260510104805 48 46 3.5 5.2 0.00 0.00 0.00 79 1018.3
20260510104305 48 65 4.3 7.0 0.00 0.00 0.00 79 1018.3
20260510103805 49 56 2.6 8.7 0.00 0.00 0.00 76 1018.3
20260510103305 49 77 2.6 5.2 0.00 0.00 0.00 75 1018.3
20260510102805 49 61 2.6 5.2 0.00 0.00 0.00 75 1018.3
20260510102306 49 87 2.6 5.2 0.00 0.00 0.00 75 1018.3
20260510101805 49 93 2.6 5.2 0.00 0.00 0.00 75 1018.3
20260510100805 49 101 3.5 7.0 0.00 0.00 0.00 74 1018.3
20260510095805 49 109 4.3 7.0 0.00 0.00 0.00 74 1008.2
20260510095306 49 122 3.5 5.2 0.00 0.00 0.00 74 1008.2
20260510093305 49 104 1.7 4.3 0.00 0.00 0.00 74 1008.2
20260510092307 49 78 1.7 2.6 0.00 0.00 0.00 74 1008.2
20260510091805 49 75 1.7 4.3 0.00 0.00 0.00 74 1008.2
20260510090805 49 75 1.7 2.6 0.00 0.00 0.00 74 1008.2
20260510085805 49 83 2.6 4.3 0.00 0.00 0.00 74 1008.2
20260510084304 49 128 1.7 2.6 0.00 0.00 0.00 74 1008.2
20260510082306 49 128 2.6 4.3 0.00 0.00 0.00 73 1008.2
20260510081304 49 148 1.7 2.6 0.00 0.00 0.00 73 1008.2
20260510075805 49 121 2.6 4.3 0.00 0.00 0.00 72 1008.2
20260510074806 49 34 0.9 2.6 0.00 0.00 0.00 72 1008.2
20260510074305 49 34 1.7 2.6 0.00 0.00 0.00 72 1008.2
20260510073805 49 34 1.7 2.6 0.00 0.00 0.00 71 1008.2
20260510071804 49 313 0.9 1.7 0.00 0.00 0.00 72 1008.2
20260510071304 49 313 0.0 0.0 0.00 0.00 0.00 72 1008.2
20260510070305 49 313 0.0 1.7 0.00 0.00 0.00 72 1008.2
20260510065804 49 313 0.9 1.7 0.00 0.00 0.00 72 1008.2
20260510064305 49 313 1.7 2.6 0.00 0.00 0.00 73 1008.2
20260510063304 49 313 1.7 2.6 0.00 0.00 0.00 74 1008.2
20260510062804 49 313 0.9 4.3 0.00 0.00 0.00 75 1008.2
20260510062307 49 342 0.9 1.7 0.00 0.00 0.00 76 1008.2
20260510061804 49 342 0.9 1.7 0.00 0.00 0.00 76 1008.2
20260510060816 49 342 2.6 5.2 0.00 0.00 0.00 76 1008.2
20260510055306 49 3 1.7 2.6 0.00 0.00 0.00 76 1008.2
20260510054804 49 344 3.5 4.3 0.00 0.00 0.00 76 1008.2
20260510054305 49 351 0.9 2.6 0.00 0.00 0.00 76 1008.2
20260510052805 49 11 4.3 6.1 0.00 0.00 0.00 75 1008.2
20260510051805 50 11 5.2 7.0 0.00 0.00 0.00 74 1008.2
20260510050804 50 337 4.3 6.1 0.00 0.00 0.00 73 1008.2
20260510045306 50 349 4.3 7.8 0.00 0.00 0.00 75 1008.2
20260510044804 50 21 4.3 6.1 0.00 0.00 0.00 75 1008.2
20260510041805 50 21 3.5 6.1 0.00 0.00 0.00 75 1008.2
20260510040305 50 4 4.3 7.8 0.00 0.00 0.00 72 1008.2
20260510035306 51 11 5.2 8.7 0.00 0.00 0.00 69 1008.2
20260510034304 51 357 7.0 11.3 0.00 0.00 0.00 66 1008.2
20260510033805 51 1 5.2 13.0 0.00 0.00 0.00 66 1008.2
20260510032805 52 354 6.1 10.4 0.00 0.00 0.00 67 1008.2
20260510030804 52 2 8.7 13.0 0.00 0.00 0.00 67 1008.2
20260510030305 52 347 8.7 14.8 0.00 0.00 0.00 67 1008.2
20260510025306 52 1 9.6 17.4 0.00 0.00 0.00 67 1008.2
20260510024305 52 2 10.4 18.2 0.00 0.00 0.00 67 1008.2
20260510023804 52 354 8.7 17.4 0.00 0.00 0.00 68 1008.2
20260510022805 52 5 15.6 26.1 0.00 0.00 0.00 69 1008.2
20260510022306 52 1 7.8 20.0 0.00 0.00 0.00 69 1008.2
20260510021804 52 354 11.3 24.3 0.00 0.00 0.00 68 1008.2
20260510020305 53 352 14.8 26.9 0.00 0.00 0.00 67 1008.2
20260510015805 53 358 13.9 20.0 0.00 0.00 0.00 67 1008.2
20260510015306 54 337 11.3 20.0 0.00 0.00 0.00 67 1008.2
20260510012805 55 4 8.7 24.3 0.00 0.00 0.00 61 1008.2
20260510012307 56 7 16.5 31.3 0.00 0.00 0.00 60 1008.2
20260510011305 57 358 13.0 24.3 0.00 0.00 0.00 57 1008.2
20260510005804 58 351 18.2 28.7 0.00 0.00 0.00 55 1008.2
20260510001805 72 46 4.3 8.7 0.00 0.00 0.00 24 1008.2
20260510000805 72 38 3.5 7.0 0.00 0.00 0.00 26 1008.2
20260509235805 73 64 6.1 10.4 0.00 0.00 0.00 26 1008.2
20260509235307 73 37 5.2 10.4 0.00 0.00 0.00 23 1008.2
20260509234805 73 56 5.2 10.4 0.00 0.00 0.00 24 1008.2
20260509233805 73 46 4.3 7.0 0.00 0.00 0.00 23 1008.2
20260509231804 73 39 3.5 10.4 0.00 0.00 0.00 20 1008.2
20260509231304 74 55 5.2 10.4 0.00 0.00 0.00 21 1008.2
20260509225805 74 80 5.2 10.4 0.00 0.00 0.00 22 1008.2
20260509225306 74 77 5.2 7.0 0.00 0.00 0.00 20 1008.2
20260509224305 73 354 4.3 8.7 0.00 0.00 0.00 20 1008.2
20260509223805 74 12 6.1 10.4 0.00 0.00 0.00 21 1008.2
20260509223304 74 29 5.2 8.7 0.00 0.00 0.00 20 1008.2
20260509221804 76 36 7.8 13.0 0.00 0.00 0.00 21 1008.2
20260509220805 75 66 7.8 17.4 0.00 0.00 0.00 21 1008.2
20260509220305 76 47 7.8 17.4 0.00 0.00 0.00 22 1008.2
20260509213804 75 29 6.1 11.3 0.00 0.00 0.00 21 1008.2
20260509213305 76 22 7.0 13.0 0.00 0.00 0.00 21 1008.2
20260509212805 76 54 8.7 14.8 0.00 0.00 0.00 21 1008.2
20260509204805 75 18 7.8 11.3 0.00 0.00 0.00 20 1008.2
20260509203805 75 76 4.3 12.2 0.00 0.00 0.00 23 1008.2
20260509203305 75 56 6.1 11.3 0.00 0.00 0.00 21 1008.2
20260509202805 75 61 7.8 14.8 0.00 0.00 0.00 21 1008.2
20260509202307 75 62 4.3 6.1 0.00 0.00 0.00 22 1008.2
20260509201805 74 77 1.7 7.8 0.00 0.00 0.00 21 1008.2
20260509201305 75 46 10.4 14.8 0.00 0.00 0.00 21 1008.2
20260509200805 74 58 6.1 13.0 0.00 0.00 0.00 22 1008.2
20260509195306 75 308 5.2 10.4 0.00 0.00 0.00 22 1008.2
20260509193805 75 58 5.2 10.4 0.00 0.00 0.00 22 1008.2
20260509192805 74 56 4.3 11.3 0.00 0.00 0.00 22 1008.2
20260509191804 74 22 6.1 11.3 0.00 0.00 0.00 22 1008.2
20260509185306 74 106 7.8 10.4 0.00 0.00 0.00 23 1008.2
20260509184805 74 111 5.2 10.4 0.00 0.00 0.00 25 1008.2
20260509183304 73 57 6.1 11.3 0.00 0.00 0.00 25 1008.2
20260509182805 72 87 7.8 13.0 0.00 0.00 0.00 24 1008.2
20260509175804 73 7 6.1 12.2 0.00 0.00 0.00 26 1008.3
20260509174805 71 43 7.0 12.2 0.00 0.00 0.00 26 1008.3